Location: Newark
(49.3000°N, 9.4667°E)
Time: 04:15:54
(UTC+00:00)

Transit 2A Rocket - Pass Details

Date: 24 May 2019
Orbit: 587 x 917 km, 66.7° (Epoch: 24 June)

Event Time Altitude Azimuth Distance (km) Brightness Sun altitude
Rises 22:36:24 0° 321° (NW) 3,514 9.5 -19.2°
Reaches altitude 10° 22:39:41 10° 337° (NNW) 2,531 8.8 -19.3°
Maximum altitude 22:43:57 20° 24° (NNE) 1,838 7.6 -19.4°
Drops below altitude 10° 22:48:01 10° 72° (ENE) 2,381 7.7 -19.5°
Sets 22:50:58 0° 89° (E) 3,244 8.2 -19.6°
